User: anonymous
Location: Hartman Creek State Park
(44.3257°N, 89.2134°W)
Time: 13:50:28
(UTC-05:00)
Language:

Terra - Orbit

View from above orbital plane
View from above orbital plane
View from above satellite
View from above satellite

Ground track
Ground track

The orbit data is extracted from the following two-line orbital elements,

1 25994U 99068A   14210.47097258  .00000252  00000-0  65922-4 0  4768
2 25994 098.2105 284.6205 0001307 095.7037 264.4314 14.57089699777222
Epoch (UTC): 29 July 2014 11:18:12
Eccentricity: 0.0001307
inclination: 98.2105°
perigee height: 701 km
apogee height: 703 km
right ascension of ascending node: 284.6205°
argument of perigee: 95.7037°
revolutions per day: 14.57089699
mean anomaly at epoch: 264.4314°
orbit number at epoch: 77722

The dashed part of the orbit path shows where the satellite is in the earth's shadow,  

DLR